Regional Weather Roundup
Issued by NWS Grand Forks, ND

Home | Current Version | Previous Version | Text Only | Print | Product List | Glossary Off
Versions: 1 2 3 4 5 6 7 8 9 10 11 12 13 14 15 16 17 18 19 20 21 22 23 24 25 26 27 28 29 30 31 32 33 34 35 36 37 38 39 40 41 42 43 44 45 46 47 48 49 50

000
ASUS43 KFGF 290310
RWRFGF
PRAIRIE TO PINES  WEATHER ROUNDUP
NATIONAL WEATHER SERVICE EASTERN NORTH DAKOTA/GRAND FORKS ND
1000 PM CDT WED SEP 28 2016

 **SATELLITE DATA USED TO AUGMENT SKY COVER AT AUTOMATED STATIONS**
 *****  WEATHER ACROSS EASTERN NORTH DAKOTA  *****

CITY           SKY/WX    TMP DP  RH WIND       PRES   REMARKS
GRAND FORKS    PTCLDY    47  44  90 N3        30.39R
GRAND FRKS AFB CLEAR     43  41  93 CALM      30.40R FOG
GRAND FRKS NWS   N/A     46 N/A N/A NE2         N/A
DEVILS LAKE    CLEAR     51  47  86 E8        30.39R
FARGO          CLEAR     51  45  79 E8        30.39R
WAHPETON ARPT  CLEAR     50  45  81 E6        30.39R
$$

 ***** WEATHER ACROSS CENTRAL AND WESTERN NORTH DAKOTA  *****

CITY           SKY/WX    TMP DP  RH WIND       PRES   REMARKS
BISMARCK       CLEAR     49  46  90 E8        30.37R
MINOT          CLEAR     53  47  79 SE8       30.35R
JAMESTOWN      CLEAR     49  44  83 E7        30.38R HAZE
MINOT AFB      CLEAR     47  44  89 SE6       30.34R
GARRISON         N/A     51  48  89 E6        30.34R
WILLISTON      CLEAR     63  38  39 SE9       30.27R
DICKINSON      CLEAR     55  32  41 SE14      30.30R
HETTINGER      CLEAR     56  36  47 E12       30.33R
$$

 *****  OTHER AIRPORT OBSERVATIONS IN OUR AREA  *****

CITY           SKY/WX    TMP DP  RH WIND       PRES   REMARKS
WALHALLA       FAIR      48  45  87 CALM      30.41R
GRAFTON AIRPOR FAIR      50  50 100 CALM      30.42R
VALLEY CITY AR FAIR      48  48 100 E6        30.41R
CANDO          FAIR      46  46 100 S3        30.40S
CAVALIER APRT  FAIR      46  46 100 CALM      30.40R
GWINNER        FAIR      46  43  87 CALM      30.39R
SHEYENNE NWR     N/A     43  41  94 E2        29.95
ROLLA          FOG       45  45 100 S3        30.39R VSB 1
 ***** THE ABOVE OBSERVATIONS ARE NON NWS ARE NOT QUALITY
       CONTROLLED AND MAY MIS-REPORT RAIN FOR SNOW...
$$

  *****  WEATHER ACROSS NORTHERN MINNESOTA  *****

CITY           SKY/WX    TMP DP  RH WIND       PRES   REMARKS
FLAG ISLAND    CLOUDY    55  50  82 CALM      30.40R
WARROAD        MOCLDY    50  46  87 CALM      30.42R
ROSEAU         CLEAR     48  43  81 SE3       30.41S
HALLOCK        CLEAR     50  46  87 CALM      30.40R
THF RVR FALLS  CLOUDY    54  49  83 E3        30.42R
BAUDETTE       CLOUDY    53  49  86 SE3       30.41S
WASKISH        CLOUDY    52  48  87 E3        30.42R
CROOKSTON      MOCLDY    54  48  82 SE5       30.41R
GREENBUSH NDAW   N/A     48  46  93 E3          N/A
$$
  *****  WEATHER ACROSS CENTRAL AND WEST MINNESOTA  *****

CITY           SKY/WX    TMP DP  RH WIND       PRES   REMARKS
FOSSTON        CLOUDY    48  46  93 CALM      30.42R
BEMIDJI        CLOUDY    52  46  81 CALM      30.41R
PARK RAPIDS    CLOUDY    56  43  61 NE3       30.40R
ELBOW LAKE     FAIR      52  47  84 NE5       30.40R
WADENA         CLOUDY    54  45  71 CALM      30.40R
DETROIT LAKES  CLOUDY    52  46  82 E3        30.41R
MOORHEAD       CLEAR     50  46  87 NE3       30.40R
FERGUS FALLS   CLEAR     50  45  81 E3        30.42R
MORRIS MN      CLOUDY    55  48  76 CALM      30.38R
STAPLES        CLOUDY    54  45  71 CALM      30.40R
$$
  *****  WEATHER ELSEWHERE ACROSS MINNESOTA  *****

CITY           SKY/WX    TMP DP  RH WIND       PRES   REMARKS
DULUTH         CLOUDY    53  50  89 E3        30.38R
INTRNTL FALLS  CLOUDY    54  48  80 NE5       30.41R
ELY            CLOUDY    54  50  87 CALM      30.40R
CLOQUET        CLOUDY    54  48  82 CALM      30.39R
WHEATON        NOT AVBL
BRAINERD       CLOUDY    54  48  80 N3        30.39R
HIBBING        CLOUDY    53  49  86 CALM      30.39R
ALEXANDRIA     CLOUDY    55  47  74 E8        30.41R
SAINT CLOUD    CLOUDY    53  49  86 CALM      30.37R
MINNEAPOLIS    CLEAR     55  48  77 N9        30.35R
$$

  *****  WEATHER ACROSS SOUTH DAKOTA  *****

CITY           SKY/WX    TMP DP  RH WIND       PRES   REMARKS
SIOUX FALLS    CLEAR     49  45  86 CALM      30.35R
BROOKINGS      CLEAR     45  43  93 NE3       30.36R
WATERTOWN      CLEAR     46  43  89 N3        30.38R
HURON          CLEAR     50  45  83 E7        30.36R
SISSETON         N/A     43  40  89 CALM      30.38R
ABERDEEN         N/A     49  42  77 E8        30.38R
MITCHELL       CLEAR     50  44  80 SE7       30.36R
PIERRE         CLEAR     51  40  65 E5        30.33R
MOBRIDGE       CLEAR     55  42  61 VRB6      30.34R
RAPID CITY     CLEAR     54  38  54 SE7       30.33R
$$

  *****  SOME WEATHER IN NEARBY STATES *****

CITY           SKY/WX    TMP DP  RH WIND       PRES   REMARKS
GLASGOW MT     CLEAR     60  50  69 E12       30.17S
GREAT FALLS MT CLEAR     52  45  77 N3        30.16R
CHEYENNE WY    CLEAR     57  37  47 E9        30.40R
SCOTTSBLUFF NE CLEAR     58  44  60 E10       30.31R
OMAHA NE       MOCLDY    54  47  77 N7        30.31R
DES MOINES IA  CLOUDY    58  49  72 N8        30.27R
DAVENPORT IA   CLEAR     53  49  86 N12       30.19R
CHICAGO IL     RAIN      56  53  90 N14G24    30.07R
EAU CLAIRE WI  MOCLDY    54  50  86 N6        30.33R
LA CROSSE WI   PTCLDY    56  51  84 N7        30.27R
$$

  *****  SOME NATIONAL WEATHER *****

CITY           SKY/WX    TMP DP  RH WIND       PRES   REMARKS
LA GUARDIA NY  DRIZZLE   61  56  83 NE23G30   30.25S
RALEIGH NC     CLOUDY    71  67  87 NW6       30.01R THUNDER
ATLANTA GA     CLEAR     70  50  49 SW7       29.94S
NEW ORLEANS LA PTCLDY    81  70  69 W3        30.00S
OKLAHOMA CITY  PTCLDY    69  43  38 N12       30.18R
ALBUQUERQUE NM CLOUDY    74  30  19 SE16      30.29R
SALT LAKE CITY CLOUDY    69  56  62 NE8       30.18R
LOS ANGELES CA PTCLDY    75  60  59 W10       29.93R
BOISE ID       CLEAR     77  33  20 SE9       29.92R
SEATTLE WA     PTCLDY    62  45  53 NE5       30.05S
$$

*** WEATHER ACROSS MANITOBA...SASKATCHEWAN AND ONTARIO ***
                ***ONTARIO***

CITY           SKY/WX    TMP DP  RH WIND       PRES   REMARKS
GERALDTON      CLOUDY    52  50  93 NE2       30.40R
THUNDER BAY    CLOUDY    54  48  82 CALM      30.39R
SIOUX LOOKOUT  CLOUDY    50  48  93 CALM      30.43R
TORONTO        MOCLDY    66  55  68 E20G31    30.16R
BIG TROUT LK   CLOUDY    50  46  87 NW8       30.38R
PICKLE LAKE    NOT AVBL
DRYDEN         CLOUDY    52  48  87 E5        30.42R
KENORA         CLOUDY    54  48  82 E5        30.42R
$$
                *** MANITOBA***

CITY           SKY/WX    TMP DP  RH WIND       PRES   REMARKS
BRANDON        CLEAR     45  41  87 E6        30.37R
DAUPHIN        PTCLDY    46  45  93 W3        30.37R
ISLAND LAKE    NOT AVBL
PILOT MOUND      N/A     46  43  87 E7          N/A
THE PAS        CLOUDY    48  43  81 SE2       30.39R
THOMPSON       CLEAR     39  34  81 CALM      30.35R
WINNIPEG       CLEAR     50  45  81 S6        30.41R
LYNN LAKE      CLEAR     39  34  81 SW6       30.33R
CHURCHILL      PTCLDY    50  34  53 W13G21    30.17R
GILLAM         CLEAR     50  37  62 W8        30.32R
$$
                ***SASKATCHEWAN***

CITY           SKY/WX    TMP DP  RH WIND       PRES   REMARKS
ESTEVAN        PTCLDY    55  39  54 SE12      30.29S
KINDERSLEY     PTCLDY    45  39  81 E13       30.27F
LLOYDMINSTER   CLOUDY    48  39  71 S7        30.30R
PRINCE ALBERT  CLOUDY    50  43  76 E6        30.34S
REGINA         PTCLDY    57  45  62 E10       30.27S
YORKTON        CLOUDY    55  48  76 NE5       30.34R
N. BATTLEFORD  CLOUDY    48  37  66 E7        30.33S
LA RONGE       PTCLDY    41  37  87 S2        30.35S
SASKATOON      LGT RAIN  48  45  87 NE8       30.34S
SWIFT CURRENT  MOCLDY    50  39  66 E15G21    30.23S
$$
NOTE: THESE ARE AUTOMATED STATIONS WITH LIMITED QUALITY CONTROL
      "FAIR" INDICATES FEW OR NO CLOUDS BELOW 12,000 FEET WITH NO
      SIGNIFICANT WEATHER AND/OR OBSTRUCTIONS TO VISIBILITY.
      SKY/WX - SKY CONDITION AND SIGNIFICANT WEATHER.
      TMP - AIR TEMPERATURE.    DP   - DEWPOINT TEMPERATURE.
      RH  - RELATIVE HUMIDITY.  PRES - PRESSURE.
      HX  - HEAT INDEX.         WCI  - WIND CHILL INDEX.
$




USA.gov is the U.S. government's official web portal to all federal, state and local government web resources and services.